TimeMST,TemperatureF,Dew PointF,Humidity,Sea Level PressureIn,VisibilityMPH,Wind Direction,Wind SpeedMPH,Gust SpeedMPH,PrecipitationIn,Events,Conditions,WindDirDegrees,DateUTC
12:53 AM,42.1,30.9,65,30.13,10.0,SE,8.1,-,N/A,,Clear,140,2013-02-01 07:53:00
1:53 AM,39.0,30.0,70,30.12,10.0,SSE,4.6,-,N/A,,Clear,150,2013-02-01 08:53:00
2:53 AM,37.0,30.0,76,30.14,10.0,Calm,Calm,-,N/A,,Clear,0,2013-02-01 09:53:00
3:53 AM,37.0,30.0,76,30.14,10.0,South,5.8,-,N/A,,Clear,180,2013-02-01 10:53:00
4:53 AM,36.0,28.9,76,30.14,10.0,Calm,Calm,-,N/A,,Clear,0,2013-02-01 11:53:00
5:53 AM,37.9,28.9,70,30.14,10.0,ESE,5.8,-,N/A,,Clear,120,2013-02-01 12:53:00
6:53 AM,37.0,28.0,70,30.16,10.0,SSE,10.4,-,N/A,,Clear,150,2013-02-01 13:53:00
7:53 AM,39.9,28.0,63,30.18,10.0,SE,8.1,-,N/A,,Clear,140,2013-02-01 14:53:00
8:53 AM,44.1,30.0,58,30.19,10.0,SE,8.1,-,N/A,,Clear,140,2013-02-01 15:53:00
9:53 AM,52.0,30.0,43,30.18,10.0,East,4.6,-,N/A,,Clear,100,2013-02-01 16:53:00
10:53 AM,57.0,28.0,33,30.18,10.0,South,5.8,-,N/A,,Clear,170,2013-02-01 17:53:00
11:53 AM,63.0,26.1,25,30.15,10.0,Variable,3.5,-,N/A,,Clear,0,2013-02-01 18:53:00
12:53 PM,68.0,25.0,20,30.11,10.0,East,3.5,-,N/A,,Clear,100,2013-02-01 19:53:00
1:53 PM,69.1,24.1,18,30.09,10.0,West,3.5,-,N/A,,Clear,270,2013-02-01 20:53:00
2:53 PM,71.1,24.1,17,30.10,10.0,NNW,6.9,-,N/A,,Clear,340,2013-02-01 21:53:00
3:53 PM,72.0,24.1,17,30.09,10.0,NW,8.1,-,N/A,,Clear,310,2013-02-01 22:53:00
4:53 PM,69.1,25.0,19,30.10,10.0,NNW,8.1,-,N/A,,Clear,340,2013-02-01 23:53:00
5:53 PM,64.9,28.0,25,30.12,10.0,NNW,3.5,-,N/A,,Clear,340,2013-02-02 00:53:00
6:53 PM,61.0,28.9,30,30.15,10.0,Calm,Calm,-,N/A,,Clear,0,2013-02-02 01:53:00
7:53 PM,57.9,30.0,35,30.17,10.0,Calm,Calm,-,N/A,,Clear,0,2013-02-02 02:53:00
8:53 PM,51.1,30.9,46,30.19,10.0,SW,3.5,-,N/A,,Clear,220,2013-02-02 03:53:00
9:53 PM,50.0,32.0,50,30.20,10.0,SSE,4.6,-,N/A,,Clear,150,2013-02-02 04:53:00
10:53 PM,46.9,33.1,59,30.19,10.0,SE,4.6,-,N/A,,Clear,130,2013-02-02 05:53:00
11:53 PM,44.1,33.1,65,30.19,10.0,South,4.6,-,N/A,,Clear,190,2013-02-02 06:53:00